Regional Weather Roundup
Issued by NWS State College, PA

Home | Current Version | Previous Version | Graphics & Text | Print | Product List | Glossary On
Versions: 1 2 3 4 5 6 7 8 9 10 11 12 13 14 15 16 17 18 19 20 21 22 23 24 25 26 27 28 29 30 31 32 33 34 35 36 37 38 39 40 41 42 43 44 45 46 47 48 49 50
000
ASUS41 KCTP 070703
RWRCTP

REGIONAL WEATHER ROUNDUP
NATIONAL WEATHER SERVICE STATE COLLEGE PA
200 AM EST WED DEC 07 2016

Note: "fair" indicates few or no clouds below 12,000 feet with no
significant weather and/or obstructions to visibility.

* = STATION THAT DOES NOT REPORT PRECIPITATION /E.G. RAIN...SNOW...ETC/
    THUNDER OR FOG.

PAZ002>004-007>009-013>016-020>023-029>032-070800-
WESTERN PENNSYLVANIA

CITY           SKY/WX    TMP DP  RH WIND       PRES   REMARKS
ERIE           CLOUDY    42  38  85 W15G24    29.82R
MEADVILLE      CLOUDY    37  35  92 SW13      29.84R FOG
FRANKLIN*        N/A     37  34  87 W15       29.86R VSB 1/2
NEW CASTLE     MIX PCPN  37  35  92 W9        29.90R
BEAVER COUNTY  NOT AVBL
BUTLER*        CLOUDY    37  34  87 W12G24    29.90R
PITTSBURGH INT CLOUDY    39  37  92 W14       29.89R
PITTSBURGH     CLOUDY    39  36  89 W15G23    29.88R FOG
INDIANA*       CLOUDY    41  41 100 VRB8G17   29.87R FOG
LATROBE        CLOUDY    41  41 100 W10G17    29.88R FOG
WASHINGTON CO* CLOUDY    37  34  87 W13G22    29.93R
$$

PAZ004>006-010>012-017>019-024>028-033>037-041-042-045-046-049>053-070800-
CENTRAL PENNSYLVANIA

CITY           SKY/WX    TMP DP  RH WIND       PRES   REMARKS
BRADFORD       CLOUDY    34  34 100 SW5       29.79R FOG
DUBOIS         CLOUDY    37  35  92 SW7       29.82R FOG
CLEARFIELD     LGT RAIN  34  34 100 N5        29.83R VSB 3/4
JOHNSTOWN      MIX PCPN  35  35 100 W7        29.81R VSB 1/4
ALTOONA        CLOUDY    37  36  96 CALM      29.85S FOG
STATE COLLEGE  LGT RAIN  34  34  99 CALM      29.85R
WILLIAMSPORT   CLOUDY    38  34  85 CALM      29.87R FOG
SELINSGROVE    CLOUDY    34  34 100 CALM      29.89R FOG
FT INDIANTOWN  CLOUDY    37  37 100 W5        29.88R
CAPITAL CITY   CLOUDY    39  36  89 CALM      29.89R
HARRISBURG     CLOUDY    38  38 100 NW5       29.89R FOG
YORK           CLOUDY    38  38 100 CALM      29.88R FOG
$$

PAZ038>040-043-044-047-048-054-055-060>062-067>071-070800-
EASTERN PENNSYLVANIA

CITY           SKY/WX    TMP DP  RH WIND       PRES   REMARKS
SCRANTON       CLOUDY    35  33  92 CALM      29.85S FOG
MOUNT POCONO   CLOUDY    31  30  96 E7        29.80S FOG
ALLENTOWN      MIX PCPN  37  34  89 NE7       29.85S FOG
QUAKERTOWN*    CLOUDY    37  36  93 NE7       29.84F
READING        CLOUDY    37  35  92 N5        29.86R
LANCASTER      CLOUDY    38  38 100 NW3       29.87R FOG
COATESVILLE    CLOUDY    37  37 100 N8        29.85R
POTTSTOWN      CLOUDY    37  37 100 N3        29.85R
BLUE BELL      CLOUDY    37  37 100 NE3       29.82F
DOYLESTOWN     CLOUDY    39  38  96 NE8       29.83R
WILLOW GROVE   NOT AVBL
NORTH PHILA    LGT RAIN  42  40  92 NE13      29.84R FOG
PHILADELPHIA   DRIZZLE   42  40  92 NE14      29.82F FOG
$$




USA.gov is the U.S. government's official web portal to all federal, state and local government web resources and services.